TIME,DELAY(SENSOR),PRES,OXYGEN,RAWTEMP,T(OPTODE),TCPHASE,FLUOR,BETA(BETA700),BETA(BETA412),BETA(BETA440),CDOM,C(CSC),ED(ED411.90),ED(ED443.80),ED(ED489.40),ED(ED554.70),LU(LU412.20),LU(LU443.80),LU(LU489.40),LU(LU555.00),COMP,TILTX,TILTY,CHECK
1370470719,5808,831.1599731445312000,152.0431060791015600,428.0322875976562500,9.7465009689331050,40.0538406372070300,52,103,96,80,79,10148,2146961920,2147517696,2147285906,2147497947,2147082816,2146929426,2147703844,2147121526,2685,-1,8,61922
1370474315,5804,952.2000122070312000,178.7781982421875000,495.0945129394531000,7.6816020011901855,39.1968994140625000,52,106,97,80,79,10147,2146962697,2147520009,2147295936,2147515547,2147088365,2146927396,2147718866,2147120310,3104,-1,8,57303
1370477915,5807,971.1300048828125000,176.6000976562500000,502.4675903320312500,7.4529199600219730,39.4754486083984400,53,106,97,80,80,10148,2146965238,2147517650,2147295177,2147511094,2147086912,2146925174,2147717412,2147119707,883,-1,8,26431
1370481515,5810,966.9799804687500000,188.8898010253906200,503.9389953613281000,7.4072370529174805,38.6731414794921900,52,106,97,80,80,10148,2146963401,2147517440,2147296969,2147517129,2147089645,2146921097,2147719497,2147119990,2719,0,8,43121
1370485115,5803,968.1799926757812000,192.3719940185547000,505.7294921875000000,7.3516321182250980,38.4783782958984400,52,101,96,82,80,10141,2146964708,2147522048,2147297984,2147511433,2147088384,2146922998,2147721956,2147122240,3466,-1,8,5512
1370488715,5806,972.3300170898438000,191.0823059082031200,506.3086853027344000,7.3336381912231445,38.5723609924316400,52,103,96,80,79,10147,2146964123,2147520786,2147295936,2147514651,2147086345,2146920411,2147720009,2147120429,3023,-1,8,11300
1370492315,5803,976.4600219726562000,190.1595001220703000,506.3569946289062500,7.3321371078491210,38.6326103210449200,52,103,97,80,81,10137,2146964534,2147516699,2147296640,2147511972,2147084772,2146924790,2147719478,2147118756,3274,-1,8,3718
1370495915,5806,981.4699707031250000,195.2700042724609400,506.1534118652344000,7.3384618759155270,38.3020896911621100,52,103,97,79,79,10127,2146963465,2147516361,2147293805,2147515437,2147087762,2146930322,2147722450,2147120155,3302,-1,8,27123
1370499515,5806,980.0499877929688000,185.7673034667968800,506.3851928710937500,7.3312621116638180,38.9210891723632800,52,104,101,80,79,10123,2146965174,2147517229,2147298002,2147513353,2147086134,2146924955,2147715072,2147118299,37,-1,8,9811
1370503115,5808,974.9199829101562000,163.8950958251953000,507.6120910644531000,7.2931389808654785,40.4779281616210940,53,105,98,79,79,10110,2146962816,2147519808,2147295277,2147514678,2147083529,2146925028,2147719561,2147121444,150,-1,8,60393
1370506715,5807,974.9600219726562000,188.3657989501953000,509.7622985839844000,7.2263059616088870,38.8090400695800800,52,107,96,79,80,10106,2146962048,2147519277,2147294016,2147512969,2147087414,2146925558,2147716480,2147120064,182,-1,8,58798
1370510315,5805,971.1500244140625000,194.3336944580078000,511.1098937988281000,7.1844029426574710,38.4483413696289060,53,107,97,78,79,10101,2146960219,2147519890,2147299318,2147512521,2147088768,2146923766,2147715904,2147117659,3085,-1,8,13386
1370513915,5807,971.5200195312500000,177.1013946533203000,513.6409912109375000,7.1056637763977050,39.6358718872070300,52,106,98,80,81,10082,2146963638,2147520978,2147296512,2147514139,2147082413,2146923245,2147719725,2147120274,3591,0,8,49935
1370517515,5807,969.7000122070312000,176.5204925537109400,513.9464111328125000,7.0961599349975590,39.6818504333496100,52,105,98,81,79,10094,2146965211,2147522998,2147299392,2147514724,2147082066,2146920384,2147716818,2147118756,129,0,8,23337
1370521115,5806,975.3099975585938000,198.2689056396484400,513.9442749023438000,7.0962247848510740,38.2513694763183600,52,107,98,80,79,10089,2146963245,2147518006,2147299373,2147516077,2147087881,2146923565,2147718756,2147118509,3346,-1,8,54944
1370524715,5807,973.0999755859375000,198.0959930419922000,513.6740112304688000,7.1046380996704100,38.2565193176269500,52,111,97,79,78,10095,2146964580,2147522176,2147298788,2147511936,2147087131,2146926857,2147716571,2147122742,3512,-1,8,63949
1370528315,5803,973.6199951171875000,197.6470947265625000,513.4625854492188000,7.1112160682678220,38.2816696166992200,52,107,98,79,80,10076,2146961398,2147517787,2147295003,2147513234,2147087030,2146926592,2147722825,2147120877,3382,-1,8,33156
1370531915,5804,972.2399902343750000,197.7897949218750000,513.8676757812500000,7.0986080169677730,38.2800102233886700,52,108,97,81,79,10076,2146963712,2147521737,2147297362,2147512978,2147083318,2146924946,2147720685,2147122880,3053,-1,8,22202
1370535515,5806,975.7500000000000000,201.1466064453125000,513.4014282226562000,7.1131200790405270,38.0630607604980500,52,107,97,79,80,10075,2146959972,2147517558,2147295469,2147515748,2147087058,2146927981,2147718582,2147118272,3260,-1,8,64053
1370539115,5808,978.0399780273438000,203.1060028076172000,512.2540283203125000,7.1488161087036130,37.9232597351074200,53,106,97,80,80,10077,2146966802,2147518793,2147298340,2147514139,2147087341,2146924178,2147715785,2147118326,10,0,8,16384
1370542715,5805,982.0100097656250000,193.5695953369140600,511.1239929199219000,7.1839637756347660,38.4967498779296900,53,106,97,82,79,10076,2146960320,2147519250,2147298596,2147512685,2147085705,2146920493,2147714038,2147120850,517,-1,8,55738
1370546315,5808,977.8200073242188000,199.1376037597656200,512.3162231445312000,7.1468830108642580,38.1687088012695300,52,111,98,81,81,10070,2146960219,2147516809,2147299373,2147515072,2147085933,2146919926,2147719424,2147120758,42,0,8,60720
1370549915,5807,976.8800048828125000,202.6378021240234400,512.3242187500000000,7.1466341018676760,37.9530410766601560,51,106,98,79,80,10069,2146964105,2147520118,2147297517,2147513398,2147086610,2146924416,2147720512,2147119478,242,-1,8,49716
1370553515,5806,974.5499877929688000,203.6708984375000000,514.5385131835938000,7.0777339935302730,37.9296302795410160,52,108,98,81,80,10070,2146962093,2147517842,2147299803,2147513609,2147086016,2146930934,2147719296,2147118262,2983,-1,8,11436
1370557115,5805,975.0599975585938000,195.3291931152343800,514.5689697265625000,7.0767831802368160,38.4463806152343750,53,103,98,79,79,10061,2146962377,2147517586,2147296484,2147516342,2147084013,2146918747,2147718994,2147118436,3414,-1,8,24979
1370560715,5804,974.4000244140625000,203.6802978515625000,514.5930786132812000,7.0760331153869630,37.9303703308105500,52,105,96,80,80,10064,2146963145,2147518235,2147300141,2147514130,2147082889,2146920731,2147721581,2147119835,414,-1,8,57518
1370564315,5803,969.9699707031250000,201.6161041259765600,516.3242187500000000,7.0221438407897950,38.0857505798339840,52,103,98,80,79,10062,2146962221,2147518052,2147296896,2147513298,2147085421,2146925805,2147720758,2147119890,2885,-1,8,10586
1370567915,5804,972.2600097656250000,202.1775054931640600,516.0762939453125000,7.0298628807067870,38.0472297668457000,52,104,117,80,80,10057,2146963227,2147516873,2147296822,2147511862,2147087378,2146921618,2147717065,2147120155,3499,0,8,58008
1370571515,5808,972.6400146484375000,196.8825073242187500,516.3372192382812000,7.0217390060424805,38.3793106079101560,53,103,96,79,80,10061,2146964297,2147520731,2147296722,2147513874,2147085659,2146924553,2147720969,2147119296,139,-1,8,2258
1370575115,5805,969.8599853515625000,202.5298004150390600,516.4666748046875000,7.0177068710327150,38.0326499938964840,52,101,97,78,80,10059,2146963510,2147522020,2147299474,2147514093,2147086976,2146923218,2147720420,2147118811,3230,-1,8,32136
1370578715,5806,974.7199707031250000,196.7256927490234400,516.4317016601562000,7.0187969207763670,38.3912391662597660,52,104,97,79,79,10056,2146961673,2147520877,2147298404,2147516873,2147087936,2146924608,2147720886,2147115958,3294,-1,8,59786
1370582315,5804,973.7000122070312000,202.0099945068359400,516.3720703125000000,7.0206518173217770,38.0629806518554700,53,103,97,81,80,10054,2146962770,2147519497,2147297243,2147511661,2147084434,2146926409,2147720877,2147119881,3434,-1,8,8752
1370585915,5806,974.6599731445312000,203.3795013427734400,516.2611083984375000,7.0241088867187500,37.9776191711425800,52,103,96,79,79,10060,2146961005,2147520941,2147297398,2147511094,2147084973,2146925037,2147721289,2147120548,509,-1,7,44350
1370589515,5807,975.4400024414062000,206.7447052001953000,516.1964721679688000,7.0261211395263670,37.7742500305175800,52,106,97,81,80,10051,2146961225,2147519460,2147296512,2147513956,2147087040,2146926235,2147718747,2147119853,218,-1,8,41816
1370593115,5805,976.6500244140625000,204.3110961914062500,515.5911865234375000,7.0449638366699220,37.9099197387695300,53,107,97,82,79,10052,2146961819,2147519213,2147298852,2147512521,2147087844,2146921645,2147720694,2147117504,3514,0,8,5029
1370596715,5808,975.0700073242188000,205.5520935058593800,516.3032226562500000,7.0227990150451660,37.8476715087890600,53,108,97,78,80,10049,2146961938,2147519341,2147296640,2147513106,2147085897,2146926738,2147721947,2147120704,648,-1,8,6377
1370600315,5805,974.0800170898438000,207.9579010009765600,516.6320800781250000,7.0125579833984375,37.7097702026367200,52,106,97,79,80,10052,2146960640,2147517970,2147297417,2147513828,2147085869,2146925586,2147720758,2147120155,985,-1,8,17803
1370603915,5809,965.2100219726562000,204.4284973144531200,518.7670898437500000,6.9460611343383790,37.9586715698242200,53,102,96,80,79,10045,2146962825,2147520338,2147298605,2147514532,2147083346,2146926857,2147721344,2147120109,3148,-1,8,19435
1370607515,5808,970.6699829101562000,204.5104064941406200,518.6857299804688000,6.9485969543457030,37.9524497985839840,53,105,97,80,79,10049,2146966354,2147518052,2147299849,2147514614,2147084973,2146927826,2147718317,2147116013,2699,-1,8,42901
1370611115,5802,968.3699951171875000,200.3504943847656200,518.5009765625000000,6.9543509483337400,38.2026901245117200,52,102,97,80,81,10048,2146961792,2147520603,2147299483,2147514569,2147085714,2146926774,2147719332,2147121371,2595,-1,8,13930
1370614715,5807,971.7500000000000000,200.2422943115234400,517.7150878906250000,6.9788308143615720,38.1954689025878900,52,103,99,80,80,10049,2146959954,2147521280,2147297773,2147515894,2147087259,2146916717,2147720502,2147118116,3456,0,8,1089
1370615155,5803,735.0000000000000000,198.6114959716797000,517.6954956054688000,6.9794421195983890,38.2957496643066400,52,101,97,80,80,10079,2146960740,2147517824,2147298752,2147512740,2147084306,2146919698,2147718089,2147118491,3422,-1,8,52339
